OBJECT AH, 43789

Orbit data source: Space-Track

You're viewing an Uncataloged Satellite

Recently launched and/or uncataloged satellites may have evolving metadata. Metadata may include but not limited to: Owner, Maufacturer, Bus, Motor, and Mission.

OBJECT AH, 43789 is a satellite in SSO that was launched on Mon, 03 Dec 2018 UTC via an FALCON 9 launch vehicle from the Air Force Western Test Range (AFWTR). Unknown objects in Earth's orbit typically refer to objects detected orbiting the Earth but have not yet been identified or cataloged. These objects could be anything from previously untracked satellites, spent rocket stages, debris from satellite collisions, or even natural meteoroids temporarily captured by Earth's gravity.

Not visible in the next 10 days
Identifier
43789, 2018-099AH
Orbit
SSO
Country
Flag of TBDTBD
Related business
Flag of USIrvine Public Schools Foundation (US)
Manufacturer
IPSF
Mission
Non-operational Amateur Technology
Bus & Motor
CUBESAT 1U, Unknown motor
Mass
1 kg wet, 1 kg dry
Launch date (UTC)
2018-12-03 (7 years ago)
Launch vehicle
FALCON 9
Launch site
Air Force Western Test Range (AFWTR)
Object type
Unknown
Shape & HBR
Box + 2 Pan, 0.1 m
Radar Cross Section
0.019 m², Small (<0.1 m²)

Expand to show TLE details & history
Last TLE update: 21 hours ago

TLE from 21 hours ago
0 OBJECT AH
1 43789U 18099AH  26034.19235885  .00557008  12244-3  17975-2 0  9996
2 43789  97.4212 115.9860 0006121 307.4153  52.6563 15.90836268394024
Epoch: 2026-02-03T04:36Z
TLE epoch observation values (Epoch: 2026-02-03T04:36:59.804Z)
Latitude
0.00001°
Longitude
-86.64°
Altitude
300.648 km
Speed
7.729 km/s
True Right ascension
07h 43m 56s
True Declination
0° 00' 00"
Sunlit
Object was in full shadow at epoch
Visualization orbit readout
Latitude
Unknown
Longitude
Unknown
Altitude
Unknown
Speed
Unknown
Apparent Right ascension
Unknown
Apparent Declination
Unknown
Sunlit
N/A
Visualization observer readout
Local Sidereal Time
03:31:35
Azimuth
Unknown
Elevation
Unknown
Doppler factor
Unknown
Orbital elements
Apogee altitude
300.9 km
Perigee altitude
292.729 km
Semi-major axis
6,674.951 km
Eccentricity
0.00061
Inclination
97.4212°
RAAN
115.986°
Arg. of periapsis
307.4153°
True anomaly
52.71209°
Mean anomaly
52.6563°
Eccentric anomaly
52.68419°
Mean motion
3.97989 °/min
Orbital period
90.45 mins
BSTAR
0.0017975
Loading maneuver chart data...
Computing Atmospheric mass density...
Loading historical data...
Loading historical data...
Loading historical data...
Loading historical data...
Loading historical data...
Loading historical data...
Loading historical data...

Documentation

Showing up to 5 results
|